When you browse on this site, cookies collect data to enhance your experience and personalize the content and advertising you see.
Visit our Privacy Policy to learn more. By continuing to use the site, you agree to this use of cookies and data.

Hourly Weather Armawir

Today, 4 August, Tuesday

Time Temperature Precipitation Wind Pressure Humidity
00:00 +23°C° 0 mm 2 mps 686 mmHg 51%
01:00 +21°C° 0 mm 2 mps 686 mmHg 51%
02:00 +21°C° 0 mm 2 mps 686 mmHg 51%
03:00 +20°C° 0 mm 2 mps 686 mmHg 54%
04:00 +20°C° 0 mm 2 mps 686 mmHg 54%
05:00 +20°C° 0 mm 2 mps 686 mmHg 54%
06:00 +20°C° 0 mm 2 mps 686 mmHg 54%
07:00 +23°C° 0 mm 2 mps 686 mmHg 48%
08:00 +25°C° 0 mm 2 mps 686 mmHg 42%
09:00 +26°C° 0 mm 2 mps 686 mmHg 37%
10:00 +28°C° 0 mm 2 mps 686 mmHg 36%
11:00 +29°C° 0 mm 2 mps 686 mmHg 35%
12:00 +30°C° 0 mm 1 mps 686 mmHg 34%
13:00 +31°C° 0 mm 2 mps 686 mmHg 34%
14:00 +31°C° 0 mm 2 mps 685 mmHg 33%
15:00 +33°C° 0 mm 3 mps 685 mmHg 33%
16:00 +32°C° 0 mm 4 mps 685 mmHg 36%
17:00 +30°C° 0 mm 4 mps 685 mmHg 38%
18:00 +30°C° 0 mm 5 mps 685 mmHg 41%
19:00 +28°C° 0 mm 4 mps 685 mmHg 45%
20:00 +26°C° 0 mm 4 mps 685 mmHg 50%
21:00 +24°C° 0 mm 3 mps 685 mmHg 54%
22:00 +24°C° 0 mm 2 mps 685 mmHg 56%
23:00 +23°C° 0 mm 2 mps 685 mmHg 57%

Tomorrow, 5 August, Wednesday

Time Temperature Precipitation Wind Pressure Humidity
00:00 +21°C° 0 mm 2 mps 685 mmHg 59%
01:00 +21°C° 0 mm 2 mps 684 mmHg 60%
02:00 +20°C° 0 mm 2 mps 684 mmHg 61%
03:00 +20°C° 0 mm 2 mps 684 mmHg 62%
04:00 +20°C° 0 mm 2 mps 684 mmHg 62%
05:00 +20°C° 0 mm 2 mps 684 mmHg 61%
06:00 +20°C° 0 mm 2 mps 684 mmHg 61%
07:00 +21°C° 0 mm 2 mps 684 mmHg 56%
08:00 +24°C° 0 mm 1 mps 684 mmHg 52%
09:00 +26°C° 0 mm 1 mps 684 mmHg 47%
10:00 +27°C° 0 mm 1 mps 684 mmHg 44%
11:00 +28°C° 0 mm 1 mps 684 mmHg 41%
12:00 +30°C° 0 mm 1 mps 684 mmHg 38%
13:00 +30°C° 0 mm 1 mps 684 mmHg 35%
14:00 +31°C° 0 mm 2 mps 684 mmHg 32%
15:00 +32°C° 0 mm 2 mps 683 mmHg 29%
16:00 +31°C° 0 mm 3 mps 683 mmHg 32%
17:00 +32°C° 0 mm 4 mps 683 mmHg 34%
18:00 +30°C° 0 mm 4 mps 683 mmHg 36%
19:00 +29°C° 0 mm 4 mps 684 mmHg 40%
20:00 +27°C° 0 mm 3 mps 684 mmHg 45%
21:00 +25°C° 0 mm 3 mps 684 mmHg 49%
22:00 +24°C° 0 mm 3 mps 684 mmHg 51%
23:00 +23°C° 0 mm 2 mps 684 mmHg 53%

Day after tomorrow, 6 August, Thursday

Time Temperature Precipitation Wind Pressure Humidity
00:00 +23°C° 0 mm 2 mps 684 mmHg 55%
01:00 +21°C° 0 mm 2 mps 684 mmHg 55%
02:00 +21°C° 0 mm 2 mps 684 mmHg 56%
03:00 +20°C° 0 mm 2 mps 684 mmHg 56%
04:00 +20°C° 0 mm 2 mps 684 mmHg 56%
05:00 +20°C° 0 mm 2 mps 684 mmHg 56%
06:00 +20°C° 0 mm 2 mps 685 mmHg 56%
07:00 +23°C° 0 mm 2 mps 685 mmHg 50%
08:00 +25°C° 0 mm 2 mps 685 mmHg 44%
09:00 +27°C° 0 mm 1 mps 685 mmHg 38%
10:00 +28°C° 0 mm 1 mps 685 mmHg 35%
11:00 +29°C° 0 mm 1 mps 685 mmHg 32%
12:00 +31°C° 0 mm 1 mps 686 mmHg 29%
13:00 +32°C° 0 mm 1 mps 686 mmHg 27%
14:00 +32°C° 0 mm 1 mps 686 mmHg 25%
15:00 +33°C° 0 mm 1 mps 686 mmHg 22%
16:00 +34°C° 0 mm 2 mps 686 mmHg 24%
17:00 +33°C° 0 mm 3 mps 686 mmHg 27%
18:00 +33°C° 0 mm 4 mps 686 mmHg 29%
19:00 +30°C° 0 mm 4 mps 686 mmHg 36%
20:00 +28°C° 0 mm 3 mps 686 mmHg 42%
21:00 +25°C° 0 mm 3 mps 686 mmHg 49%
22:00 +25°C° 0 mm 3 mps 686 mmHg 51%
23:00 +24°C° 0 mm 2 mps 686 mmHg 53%

7 August, Friday

Time Temperature Precipitation Wind Pressure Humidity
00:00 +23°C° 0 mm 2 mps 686 mmHg 55%
01:00 +23°C° 0 mm 2 mps 686 mmHg 56%
02:00 +22°C° 0 mm 1 mps 686 mmHg 57%
03:00 +21°C° 0 mm 1 mps 686 mmHg 58%
04:00 +22°C° 0 mm 1 mps 686 mmHg 58%
05:00 +22°C° 0 mm 1 mps 687 mmHg 58%
06:00 +22°C° 0 mm 1 mps 687 mmHg 58%
07:00 +24°C° 0 mm 1 mps 687 mmHg 51%
08:00 +25°C° 0 mm 1 mps 687 mmHg 45%
09:00 +27°C° 0 mm 1 mps 687 mmHg 38%
10:00 +28°C° 0 mm 1 mps 687 mmHg 36%
11:00 +30°C° 0 mm 1 mps 687 mmHg 34%
12:00 +31°C° 0 mm 2 mps 687 mmHg 32%
13:00 +32°C° 0 mm 2 mps 687 mmHg 30%
14:00 +34°C° 0 mm 2 mps 686 mmHg 28%
15:00 +34°C° 0 mm 2 mps 686 mmHg 26%
16:00 +34°C° 0 mm 2 mps 686 mmHg 28%
17:00 +34°C° 0 mm 2 mps 686 mmHg 29%
18:00 +33°C° 0 mm 3 mps 686 mmHg 31%
19:00 +30°C° 0 mm 3 mps 686 mmHg 37%
20:00 +28°C° 0 mm 3 mps 686 mmHg 43%
21:00 +26°C° 0 mm 3 mps 686 mmHg 49%
22:00 +25°C° 0 mm 3 mps 686 mmHg 50%
23:00 +25°C° 0 mm 2 mps 686 mmHg 52%

8 August, Saturday

Time Temperature Precipitation Wind Pressure Humidity
00:00 +24°C° 0 mm 2 mps 686 mmHg 54%
01:00 +23°C° 0 mm 1 mps 686 mmHg 55%
02:00 +22°C° 0 mm 1 mps 685 mmHg 57%
03:00 +22°C° 0 mm 1 mps 685 mmHg 58%
04:00 +22°C° 0 mm 1 mps 685 mmHg 58%
05:00 +22°C° 0 mm 1 mps 685 mmHg 57%
06:00 +22°C° 0 mm 1 mps 685 mmHg 56%
07:00 +24°C° 0 mm 1 mps 685 mmHg 51%
08:00 +26°C° 0 mm 2 mps 685 mmHg 45%
09:00 +28°C° 0 mm 2 mps 685 mmHg 40%
10:00 +30°C° 0 mm 2 mps 685 mmHg 37%
11:00 +31°C° 0 mm 2 mps 685 mmHg 34%
12:00 +32°C° 0 mm 2 mps 685 mmHg 31%
13:00 +34°C° 0 mm 2 mps 684 mmHg 29%
14:00 +35°C° 0 mm 3 mps 684 mmHg 27%
15:00 +36°C° 0 mm 3 mps 684 mmHg 25%
16:00 +36°C° 0 mm 3 mps 684 mmHg 25%
17:00 +36°C° 0 mm 3 mps 683 mmHg 26%
18:00 +35°C° 0 mm 2 mps 683 mmHg 26%
19:00 +33°C° 0 mm 3 mps 683 mmHg 32%
20:00 +30°C° 0 mm 3 mps 683 mmHg 38%
21:00 +28°C° 0 mm 3 mps 683 mmHg 45%
22:00 +27°C° 0 mm 2 mps 683 mmHg 47%
23:00 +26°C° 0 mm 2 mps 683 mmHg 50%

9 August, Sunday

Time Temperature Precipitation Wind Pressure Humidity
00:00 +25°C° 0 mm 2 mps 683 mmHg 52%
01:00 +24°C° 0 mm 2 mps 682 mmHg 54%
02:00 +24°C° 0 mm 1 mps 682 mmHg 55%
03:00 +23°C° 0 mm 1 mps 682 mmHg 57%
04:00 +23°C° 0 mm 1 mps 682 mmHg 57%
05:00 +24°C° 0 mm 1 mps 682 mmHg 57%
06:00 +24°C° 0 mm 1 mps 682 mmHg 57%
07:00 +26°C° 0 mm 2 mps 682 mmHg 50%
08:00 +28°C° 0 mm 2 mps 683 mmHg 43%
09:00 +30°C° 0 mm 2 mps 683 mmHg 36%
10:00 +32°C° 0 mm 2 mps 683 mmHg 32%
11:00 +34°C° 0 mm 2 mps 683 mmHg 29%
12:00 +36°C° 0 mm 3 mps 683 mmHg 25%
13:00 +37°C° 0 mm 3 mps 682 mmHg 23%
14:00 +38°C° 0 mm 2 mps 682 mmHg 20%
15:00 +39°C° 0 mm 2 mps 682 mmHg 18%
16:00 +39°C° 0 mm 2 mps 681 mmHg 19%
17:00 +38°C° 0 mm 2 mps 681 mmHg 19%
18:00 +38°C° 0 mm 3 mps 681 mmHg 20%
19:00 +36°C° 0 mm 3 mps 681 mmHg 26%
20:00 +33°C° 0 mm 3 mps 681 mmHg 32%
21:00 +30°C° 0 mm 3 mps 681 mmHg 38%
22:00 +28°C° 0 mm 2 mps 681 mmHg 41%
23:00 +27°C° 0 mm 2 mps 681 mmHg 44%
Show more